Ubon Ratchathani, Thailand

12:38 AM +07 on April 25, 2018 (GMT +0700)
Ubon Ratchathani

Weather History for VTUU - February, 2014

Change the Weather History Date:

Saturday, February 22, 2014

  Actual Average Record
Temperature  
Mean Temperature 78 °F -  
Max Temperature 91 °F 95 °F - ()
Min Temperature 64 °F 71 °F - ()
Cooling Degree Days 12    
Growing Degree Days 28 (Base 50)    
Moisture  
Dew Point 68 °F    
Average Humidity 70    
Maximum Humidity 94    
Minimum Humidity 43    
Precipitation  
Precipitation 0.00 in 0.03 in - ()
Sea Level Pressure  
Sea Level Pressure 29.95 in    
Wind  
Wind Speed 2 mph ()    
Max Wind Speed 5 mph    
Max Gust Speed -    
Visibility 5.0 miles    
Events      
T = Trace of Precipitation, MM = Missing Value Source: Averaged Metar Reports

Daily Weather History Graph

Daily Weather History Graph

Search for Another Location

Airport or City:

Astronomy

Feb. 22, 2014 Rise Set
Actual Time 6:21 AM +07 6:06 PM +07
Civil Twilight 6:00 AM +07 6:28 PM +07
Nautical Twilight 5:35 AM +07 6:53 PM +07
Astronomical Twilight 5:10 AM +07 7:18 PM +07
Moon No Moon Rise 11:12 AM +07 (2/22)
Length of Visible Light 12h 27m
Length of Day
11h 44m
Waning Gibbous, 55% of the Moon is Illuminated
Feb 22
Waning Gibbous
Feb 23
Last Quarter
Mar 1
New
Mar 8
First Quarter
Mar 17
Full

Hourly Weather History & Observations

Time (+07) Temp. Heat Index Dew Point Humidity Pressure Visibility Wind Dir Wind Speed Gust Speed Precip Events Conditions
1:00 AM 71 °F - 66 °F 80% 29.98 in 5 mi Calm Calm - -   Mist
1:00 AM 71.6 °F - 66.2 °F 83% 29.95 in 5.0 mi Calm Calm - N/A   Unknown
2:00 AM 69.8 °F - 66.2 °F 88% 29.95 in 5.0 mi Calm Calm - N/A   Unknown
4:00 AM 68 °F - 65 °F 85% 29.96 in 5 mi East 2.3 mph - -   Mist
4:00 AM 68.0 °F - 64.4 °F 88% 29.95 in 5.0 mi East 2.3 mph - N/A   Unknown
5:00 AM 68.0 °F - 64.4 °F 88% 29.95 in 5.0 mi Calm Calm - N/A   Unknown
6:00 AM 66.2 °F - 64.4 °F 94% 29.98 in 3.7 mi NNE 2.3 mph - N/A   Unknown
6:30 AM 66.2 °F - 64.4 °F 94% 29.98 in 3.7 mi North 2.3 mph - N/A   Unknown
7:00 AM 66 °F - 64 °F 92% 30.01 in 4 mi East 2.3 mph - -   Mist
7:00 AM 66.2 °F - 64.4 °F 94% 30.01 in 3.7 mi East 2.3 mph - N/A   Unknown
8:00 AM 69.8 °F - 66.2 °F 88% 30.04 in 3.7 mi NE 2.3 mph - N/A   Unknown
9:00 AM 75.2 °F - 68.0 °F 78% 30.04 in 4.3 mi ESE 2.3 mph - N/A   Unknown
10:00 AM 79 °F - 68 °F 60% 30.06 in 5 mi NE 3.5 mph - -   Mist
10:00 AM 78.8 °F - 68.0 °F 69% 30.06 in 5.0 mi NE 3.5 mph - N/A   Unknown
11:00 AM 82.4 °F 87.2 °F 71.6 °F 70% 30.04 in 5.6 mi SW 4.6 mph - N/A   Unknown
12:00 PM 86.0 °F 91.8 °F 71.6 °F 62% 29.98 in 5.6 mi ENE 2.3 mph - N/A   Unknown
1:00 PM 88 °F - 69 °F 44% 29.96 in 6 mi East 3.5 mph - -   Haze
1:00 PM 87.8 °F 92.6 °F 69.8 °F 55% 29.95 in 5.6 mi East 3.5 mph - N/A   Unknown
2:00 PM 89.6 °F 94.7 °F 69.8 °F 52% 29.89 in 5.6 mi NE 2.3 mph - N/A   Unknown
3:00 PM 89.6 °F 94.7 °F 69.8 °F 52% 29.86 in 5.6 mi NE 2.3 mph - N/A   Mostly Cloudy
4:00 PM 90 °F - 71 °F 43% 29.86 in 6 mi ESE 2.3 mph - -   Haze
4:00 PM 91.4 °F 98.4 °F 71.6 °F 52% 29.86 in 5.6 mi ESE 2.3 mph - N/A   Mostly Cloudy
5:00 PM 89.6 °F 94.7 °F 69.8 °F 52% 29.86 in 5.0 mi East 2.3 mph - N/A   Unknown
5:30 PM 87.8 °F 92.6 °F 69.8 °F 55% 29.86 in 5.0 mi SSW 2.3 mph - N/A   Unknown
6:00 PM 87.8 °F 93.8 °F 71.6 °F 58% 29.86 in 5.0 mi SSE 2.3 mph - N/A   Unknown
7:00 PM 85 °F - 71 °F 53% 29.90 in 5 mi West 2.3 mph - -   Haze
7:00 PM 84.2 °F 89.6 °F 71.6 °F 66% 29.89 in 5.0 mi SW 2.3 mph - N/A   Unknown
8:00 PM 82.4 °F 87.2 °F 71.6 °F 70% 29.89 in 5.0 mi West 2.3 mph - N/A   Unknown
9:00 PM 80.6 °F 83.9 °F 69.8 °F 70% 29.92 in 5.0 mi WSW 2.3 mph - N/A   Unknown
10:00 PM 79 °F - 69 °F 65% 29.94 in 5 mi NE 2.3 mph - -   Mist
10:00 PM 78.8 °F - 69.8 °F 74% 29.95 in 5.0 mi NE 2.3 mph - N/A   Unknown